Vorticity
16 17 17 16 15 14 13 13 13 12 11 11 12 14 16 18 17 16 13 11 10 8 6 5 6 8 13 20 25 31 35 37 33 29 25 22 17 12 8 6 7 9 11 13 11 7 5 3 3 3 4 6 10 12 14 15 15 16 16 17 18 20 21 22 23 25 27 28 29
16 16 16 15 14 14 13 13 13 12 12 11 12 14 16 18 17 15 13 12 10 8 6 5 6 8 12 18 24 29 33 36 35 31 27 23 18 14 9 6 6 8 9 11 11 9 6 2 1 0 1 2 4 7 10 12 12 13 13 14 16 18 20 21 22 24 25 26 27
16 16 16 15 14 14 13 13 13 12 11 11 12 14 16 18 17 15 13 11 9 8 7 6 6 7 11 16 22 27 31 35 36 33 29 24 20 16 11 7 6 7 8 10 10 9 7 4 1 -1 -1 -0 -0 2 5 8 9 10 10 11 13 15 18 20 22 23 24 24 25
16 16 16 15 15 14 13 12 12 12 11 10 12 14 16 18 17 15 13 10 9 9 8 6 6 7 10 14 20 25 29 33 36 35 31 26 22 18 13 9 7 6 7 8 8 8 8 6 3 -0 -2 -1 -1 -0 2 4 6 7 8 9 12 13 16 19 21 22 23 24 24
16 17 16 15 14 13 13 13 12 11 11 10 11 13 16 18 17 15 13 11 10 9 8 7 6 6 8 13 18 22 27 31 34 35 34 29 25 20 16 11 8 6 6 7 8 7 7 7 6 2 -1 -2 -1 -0 1 3 5 6 7 8 10 12 15 18 20 22 23 23 23
16 16 16 15 14 14 13 13 13 12 10 9 11 13 16 18 17 15 13 12 10 9 8 7 6 6 8 11 16 21 25 29 32 35 35 32 28 23 18 14 10 7 6 6 7 7 6 6 6 5 3 -1 -1 -0 1 3 5 7 7 7 8 10 13 15 18 20 22 23 23
15 15 15 15 14 13 13 13 13 12 10 10 11 13 15 17 17 16 14 11 10 9 8 8 7 6 7 9 14 19 23 27 31 33 34 34 30 27 22 18 13 9 6 6 6 7 6 5 5 6 5 4 1 -0 0 2 5 7 8 8 8 8 10 12 14 17 19 20 22
15 16 16 15 14 13 13 13 13 12 10 10 11 12 14 16 17 16 14 12 11 10 9 8 7 7 7 8 12 16 21 25 29 31 33 34 32 30 26 22 17 12 8 6 6 6 6 6 5 4 5 5 4 2 1 2 4 7 9 10 10 8 8 9 11 13 16 17 19
15 16 16 15 14 14 13 13 13 12 10 10 10 12 14 16 16 16 14 13 12 10 9 8 8 7 7 7 10 14 19 24 27 30 32 32 32 31 28 25 21 16 12 8 6 5 6 6 6 5 4 5 5 4 4 2 4 6 8 10 11 10 8 7 8 10 13 14 16
15 15 15 15 14 14 13 13 13 13 11 9 10 11 13 15 16 16 15 13 11 10 10 9 8 7 7 7 9 12 16 21 26 29 31 31 31 30 29 27 24 21 16 12 8 6 5 5 5 5 4 4 5 5 5 5 4 5 7 9 11 11 10 8 7 8 10 12 13
14 15 15 15 14 13 13 13 14 13 12 10 9 10 12 14 16 16 15 13 12 11 10 9 8 8 7 7 8 11 14 18 23 27 30 31 30 30 29 28 26 24 20 17 12 8 5 5 5 5 4 4 4 4 5 6 6 6 6 8 9 10 10 10 8 8 8 10 10
14 15 15 15 14 13 13 14 13 13 12 10 9 10 11 13 15 15 14 14 13 12 11 10 9 8 8 7 8 9 12 16 21 25 29 31 31 30 28 28 27 25 23 21 17 12 8 5 5 5 4 4 4 4 4 5 6 6 6 7 8 8 9 10 10 9 9 9 9
14 14 15 15 14 14 13 13 13 13 12 10 9 10 11 13 14 14 14 14 13 12 11 10 10 9 8 7 7 8 11 14 18 23 28 31 31 30 29 27 27 25 24 23 21 17 13 9 6 5 5 5 4 4 3 3 5 5 6 6 7 8 8 9 10 10 11 10 9
14 15 16 15 14 14 13 13 13 13 12 10 10 10 10 12 13 14 14 14 13 12 11 10 10 10 9 8 7 8 9 12 16 20 25 30 31 31 30 28 27 25 24 22 22 20 18 14 10 8 6 6 6 5 4 4 4 4 5 6 7 8 9 9 10 10 11 11 10
14 15 16 16 15 14 13 13 13 13 12 11 10 9 10 11 12 13 14 14 13 12 12 11 10 10 9 8 7 7 8 10 13 18 22 27 31 32 32 30 28 26 24 22 21 21 20 19 16 12 9 8 7 7 6 5 5 5 5 6 7 8 10 10 11 11 10 11 10
14 15 16 16 15 14 13 13 13 12 12 11 9 9 9 11 12 13 14 14 13 12 12 12 11 10 10 9 8 7 7 8 11 14 19 24 29 31 33 32 31 29 26 23 21 20 20 20 19 16 13 11 9 8 8 7 6 6 5 5 6 7 9 11 12 12 12 11 10
14 15 16 16 15 14 13 12 12 12 12 11 10 9 9 10 11 13 14 13 13 12 12 12 11 10 10 10 9 8 7 7 9 12 16 21 26 30 32 33 33 32 30 27 24 21 20 20 20 19 17 14 12 10 9 8 7 6 6 6 6 7 8 10 11 12 13 13 12
15 15 16 16 16 14 13 12 12 13 12 11 10 9 9 9 11 12 13 13 13 12 12 11 11 11 10 10 9 8 8 7 8 10 13 17 22 27 30 32 34 34 34 32 28 25 23 21 20 20 19 18 15 13 11 9 8 7 7 6 6 6 7 8 10 12 13 14 13
14 15 16 17 16 14 13 12 12 13 13 12 10 9 8 9 10 11 12 13 13 12 12 11 11 11 11 10 10 9 8 8 7 8 10 13 18 23 27 30 32 34 35 35 34 32 28 25 22 21 21 20 19 17 14 11 9 8 7 7 7 7 7 8 9 11 12 13 14
14 15 16 17 16 14 13 12 12 13 13 12 10 9 9 9 10 11 12 13 12 12 12 11 11 11 11 11 10 10 9 8 7 8 8 10 14 19 24 27 29 31 33 34 37 37 35 30 26 24 22 22 22 21 18 15 12 10 8 7 7 7 8 9 10 11 12 12 13
15 16 16 16 16 14 12 11 12 12 13 13 11 10 9 8 10 11 12 12 11 11 11 11 11 11 11 11 11 10 9 8 8 8 8 9 12 16 20 24 27 28 29 30 34 37 37 33 28 25 23 23 23 22 22 20 17 14 12 10 8 8 8 10 11 12 12 13 13
14 15 16 17 16 14 12 11 11 12 13 13 12 10 9 9 10 10 11 11 11 11 11 11 10 10 11 11 11 11 10 9 8 8 8 8 10 13 17 22 24 26 27 27 28 32 34 34 29 26 24 23 22 22 22 22 21 19 17 14 12 10 10 10 12 13 14 14 14
13 15 16 17 16 14 13 11 10 11 13 14 13 12 10 9 9 10 10 11 11 11 11 10 10 10 10 11 11 11 10 10 9 8 8 8 9 11 14 19 23 25 26 26 25 27 29 32 29 27 26 24 23 22 22 22 22 22 21 19 17 15 13 12 13 14 16 17 16
13 14 16 16 16 15 13 10 10 11 12 14 14 12 10 9 9 9 10 11 11 11 10 10 10 10 10 10 10 11 11 10 10 9 8 8 8 10 12 16 20 24 25 25 24 24 26 29 28 27 26 25 24 24 23 22 22 22 23 23 21 19 17 15 14 15 17 18 19
13 13 15 16 17 15 13 11 11 11 12 13 13 12 11 10 9 9 10 10 11 11 10 10 9 9 9 9 10 10 11 11 10 9 9 8 8 9 11 14 18 21 24 25 24 24 24 26 26 25 24 24 24 24 24 24 23 23 23 24 24 23 22 19 17 16 16 18 20
12 13 15 16 16 16 14 13 11 10 10 12 13 13 12 11 9 9 9 10 11 11 10 10 9 8 8 8 9 9 10 11 11 10 9 9 8 8 10 12 15 19 22 24 24 24 24 24 25 25 24 23 23 23 24 24 24 24 23 24 25 25 25 24 21 19 17 17 18
12 13 14 15 16 16 16 13 10 9 9 11 13 13 13 11 10 9 10 10 11 10 10 10 9 8 8 8 8 9 10 10 10 10 10 10 9 8 9 10 13 16 19 22 23 24 24 24 25 26 25 24 23 23 23 24 24 24 24 23 24 24 25 26 25 22 20 17 17
13 13 13 14 17 17 16 13 11 10 10 10 12 13 13 12 11 10 10 9 10 10 10 10 10 8 8 8 8 8 9 9 10 10 10 10 10 9 8 9 11 14 17 20 22 23 23 24 24 25 26 25 24 24 24 24 24 24 24 23 23 23 23 24 24 24 22 20 18
12 12 12 14 16 17 16 14 13 10 9 9 10 12 13 13 12 10 9 9 9 10 11 11 9 8 8 8 8 8 8 9 9 10 10 10 10 10 9 9 10 12 14 17 20 21 22 23 24 24 24 24 24 24 24 24 24 24 24 24 23 22 22 22 23 23 23 22 20
12 12 13 14 15 16 17 16 13 10 9 8 9 11 12 13 12 11 10 10 10 11 11 10 9 9 9 8 8 7 8 8 8 9 10 10 10 10 9 9 9 10 13 16 18 20 21 22 22 22 22 22 23 24 24 24 24 24 25 25 24 23 22 21 22 22 23 23 22
13 13 13 13 15 16 17 16 13 11 8 8 9 10 12 13 13 12 11 10 10 9 9 10 10 10 9 8 8 7 7 7 8 8 9 10 10 10 10 9 9 10 11 14 16 18 20 21 21 21 21 21 22 22 23 23 24 24 25 25 25 24 23 22 21 22 22 23 22
13 13 13 13 15 16 17 16 14 12 9 8 8 10 12 13 13 12 11 10 8 8 9 10 10 10 9 8 8 8 7 7 8 8 8 9 10 10 10 10 10 10 10 12 15 18 19 20 20 20 20 20 20 21 21 22 23 24 25 26 26 26 25 24 23 22 22 22 22
13 13 13 14 14 15 16 16 15 13 10 8 8 9 10 12 12 12 12 11 10 9 9 10 10 10 10 9 8 8 8 8 7 8 8 8 9 10 10 10 10 10 10 11 14 16 18 20 20 20 20 19 19 20 20 21 22 23 24 25 27 27 27 27 25 24 23 22 22
13 13 14 14 14 15 16 16 15 13 11 9 8 8 9 10 12 13 13 12 11 10 9 9 10 10 10 9 9 8 8 8 7 7 8 8 8 9 10 10 10 10 10 10 12 15 17 19 20 20 19 19 19 20 20 20 20 21 22 23 25 27 28 28 27 26 24 23 23
12 13 14 14 14 15 15 16 16 14 12 10 8 8 8 10 12 13 13 12 11 10 9 9 9 9 9 9 9 8 8 8 8 8 8 8 8 9 10 10 10 10 10 11 11 13 15 18 19 20 19 19 20 20 20 20 20 20 20 21 23 25 27 29 29 28 26 25 24
12 13 13 14 14 15 15 16 16 15 13 11 9 7 8 9 11 13 13 12 11 10 10 9 9 9 9 9 9 9 9 8 8 8 8 8 8 8 9 10 10 10 11 11 11 12 14 16 18 19 19 19 20 20 21 20 20 20 20 20 22 24 26 28 29 29 28 26 25
12 13 13 13 14 15 15 16 16 15 14 13 10 8 7 7 9 11 12 13 12 12 11 9 9 9 9 9 9 9 9 9 8 8 8 8 8 8 9 9 10 10 11 12 11 12 12 14 17 19 20 19 20 21 21 21 21 20 20 21 22 23 25 28 29 30 29 28 26
12 12 13 13 14 14 15 15 16 16 16 14 11 8 6 6 7 9 11 13 13 12 11 10 10 9 9 8 9 9 10 10 9 9 8 8 8 8 8 9 10 10 11 12 11 11 12 13 16 18 20 20 21 21 22 21 21 21 21 22 22 24 25 27 29 30 30 29 27
12 12 12 13 13 14 14 15 16 17 16 14 12 9 7 6 7 8 10 12 13 13 12 11 10 9 8 8 9 10 10 10 10 9 8 8 8 8 8 8 9 9 10 11 11 10 10 11 15 18 21 21 22 22 22 21 21 21 22 22 23 24 26 27 28 29 29 28 27
11 12 12 13 13 14 14 15 17 17 16 15 13 10 8 7 6 7 8 10 12 12 13 12 10 9 8 8 9 10 10 10 10 9 9 8 8 8 8 8 8 9 9 10 10 10 10 10 13 17 20 22 23 22 22 21 21 21 22 23 24 25 26 27 28 28 28 28 26
11 11 12 12 13 13 14 15 16 16 17 17 15 12 10 6 5 6 7 9 10 12 12 12 11 10 9 8 9 10 10 10 10 9 9 8 8 8 8 8 8 8 9 9 9 9 8 8 11 14 18 22 24 24 23 21 20 21 22 23 24 25 26 27 27 27 27 27 26
Height
5565 5559 5552 5547 5541 5535 5529 5523 5518 5512 5506 5501 5495 5488 5482 5476 5470 5465 5459 5454 5448 5442 5436 5431 5424 5417 5411 5404 5398 5392 5387 5382 5378 5373 5370 5366 5363 5360 5357 5354 5351 5349 5346 5343 5340 5337 5333 5330 5327 5324 5321 5318 5315 5312 5310 5308 5306 5304 5302 5301 5300 5299 5299 5299 5298 5299 5299 5300 5300
5563 5556 5550 5544 5538 5533 5527 5521 5516 5510 5504 5498 5492 5486 5481 5475 5469 5463 5458 5452 5447 5441 5436 5429 5423 5416 5410 5404 5398 5392 5387 5382 5377 5373 5370 5366 5363 5360 5357 5354 5351 5349 5346 5343 5340 5337 5334 5331 5328 5326 5322 5320 5317 5315 5313 5311 5309 5307 5306 5304 5303 5302 5301 5301 5301 5301 5301 5301 5302
5561 5555 5549 5543 5537 5531 5526 5520 5514 5508 5502 5497 5491 5485 5479 5473 5468 5462 5456 5451 5446 5440 5434 5428 5422 5416 5410 5404 5397 5391 5386 5381 5377 5373 5369 5366 5362 5359 5357 5354 5351 5349 5346 5343 5341 5338 5335 5332 5330 5327 5324 5321 5319 5317 5315 5313 5311 5310 5308 5307 5306 5305 5304 5303 5302 5302 5302 5302 5303
5559 5553 5547 5541 5536 5530 5525 5519 5513 5507 5501 5496 5490 5484 5478 5472 5467 5461 5456 5450 5444 5439 5433 5428 5422 5416 5410 5404 5397 5391 5386 5381 5377 5373 5369 5366 5362 5359 5356 5354 5351 5349 5346 5343 5341 5338 5336 5333 5331 5328 5326 5323 5321 5319 5317 5315 5313 5311 5310 5309 5307 5306 5305 5305 5304 5303 5303 5303 5304
5557 5551 5546 5540 5534 5529 5523 5517 5512 5506 5501 5495 5489 5483 5477 5471 5466 5460 5454 5449 5443 5438 5433 5427 5421 5416 5410 5404 5397 5392 5386 5381 5377 5373 5369 5366 5362 5359 5356 5354 5351 5349 5346 5343 5341 5339 5336 5334 5331 5329 5326 5324 5322 5320 5318 5316 5315 5313 5312 5310 5309 5308 5307 5306 5305 5305 5305 5305 5305
5556 5550 5544 5539 5533 5527 5522 5516 5511 5505 5499 5494 5488 5482 5476 5471 5465 5459 5454 5449 5443 5438 5432 5427 5421 5416 5410 5404 5398 5392 5386 5381 5377 5373 5369 5366 5362 5359 5356 5353 5351 5349 5346 5344 5341 5339 5336 5334 5332 5330 5327 5326 5323 5321 5320 5318 5316 5315 5313 5311 5310 5309 5308 5307 5306 5306 5306 5306 5306
5555 5549 5544 5538 5532 5526 5521 5515 5509 5504 5498 5493 5487 5481 5476 5470 5465 5459 5454 5448 5443 5437 5432 5427 5421 5416 5410 5404 5398 5393 5387 5382 5377 5373 5369 5366 5362 5359 5356 5353 5351 5348 5346 5344 5341 5339 5337 5335 5333 5331 5328 5326 5324 5322 5321 5319 5317 5316 5314 5313 5311 5310 5309 5309 5308 5307 5306 5306 5306
5553 5548 5542 5537 5531 5526 5520 5514 5509 5503 5497 5492 5486 5481 5476 5470 5465 5459 5453 5448 5442 5437 5432 5427 5421 5416 5411 5405 5399 5393 5388 5382 5377 5373 5369 5366 5362 5359 5356 5353 5351 5348 5346 5344 5341 5339 5337 5335 5333 5331 5329 5327 5325 5323 5321 5320 5318 5317 5315 5314 5312 5311 5310 5309 5309 5308 5307 5307 5307
5552 5547 5541 5535 5530 5525 5519 5514 5508 5502 5497 5491 5486 5480 5475 5470 5464 5459 5454 5448 5443 5438 5432 5427 5421 5416 5411 5405 5399 5394 5388 5383 5378 5373 5369 5365 5362 5359 5356 5353 5350 5348 5346 5343 5341 5339 5337 5335 5333 5331 5330 5327 5326 5324 5322 5321 5319 5318 5316 5315 5313 5312 5311 5310 5309 5308 5308 5308 5307
5551 5546 5540 5535 5529 5524 5518 5513 5507 5501 5496 5491 5485 5480 5475 5469 5464 5459 5454 5449 5443 5437 5432 5427 5422 5416 5411 5406 5400 5395 5389 5384 5378 5374 5369 5365 5361 5358 5356 5353 5350 5347 5345 5343 5341 5339 5337 5335 5333 5331 5330 5328 5326 5324 5322 5321 5320 5318 5317 5315 5314 5313 5311 5311 5310 5309 5308 5308 5308
5551 5545 5540 5534 5529 5523 5517 5512 5506 5501 5496 5490 5485 5480 5474 5469 5464 5459 5454 5449 5443 5438 5432 5427 5422 5417 5412 5406 5401 5396 5390 5385 5379 5374 5369 5365 5361 5358 5355 5352 5350 5347 5345 5343 5341 5339 5337 5335 5333 5331 5330 5328 5326 5324 5323 5321 5320 5318 5317 5316 5314 5313 5312 5311 5310 5310 5309 5308 5308
5550 5544 5539 5533 5528 5522 5517 5511 5506 5501 5496 5490 5485 5480 5474 5469 5464 5459 5454 5448 5443 5438 5433 5428 5423 5417 5412 5407 5402 5396 5391 5386 5380 5375 5370 5366 5361 5358 5354 5351 5349 5346 5344 5342 5340 5338 5336 5335 5333 5331 5330 5328 5326 5325 5323 5321 5320 5319 5317 5316 5315 5313 5312 5311 5311 5310 5309 5308 5308
5549 5544 5538 5533 5527 5521 5516 5511 5506 5500 5495 5490 5485 5480 5474 5469 5464 5459 5454 5449 5444 5438 5433 5428 5423 5418 5413 5408 5402 5397 5392 5386 5381 5376 5371 5366 5361 5357 5354 5351 5348 5346 5344 5341 5339 5337 5336 5334 5332 5331 5329 5328 5326 5325 5323 5321 5320 5318 5317 5316 5315 5313 5312 5311 5310 5310 5309 5308 5308
5548 5543 5537 5532 5526 5521 5516 5510 5505 5500 5495 5490 5485 5480 5475 5469 5464 5459 5454 5449 5444 5439 5434 5429 5423 5418 5413 5408 5403 5398 5393 5387 5382 5377 5372 5367 5362 5358 5354 5351 5348 5345 5343 5341 5339 5336 5335 5333 5331 5330 5328 5327 5325 5324 5322 5321 5320 5318 5317 5316 5314 5313 5312 5311 5310 5309 5308 5308 5307
5547 5542 5536 5531 5526 5520 5515 5510 5505 5500 5495 5490 5485 5480 5475 5470 5464 5459 5454 5449 5444 5439 5434 5429 5424 5419 5414 5409 5404 5398 5393 5388 5383 5378 5373 5368 5363 5359 5355 5351 5347 5345 5342 5340 5338 5336 5334 5332 5330 5329 5327 5326 5324 5323 5321 5320 5319 5317 5316 5315 5314 5313 5311 5311 5310 5309 5308 5307 5307
5546 5541 5536 5530 5525 5519 5514 5509 5504 5499 5494 5490 5485 5480 5475 5470 5465 5459 5454 5449 5444 5439 5434 5429 5424 5419 5414 5409 5404 5399 5394 5389 5384 5379 5374 5369 5364 5360 5356 5351 5348 5345 5341 5339 5337 5335 5333 5331 5329 5327 5326 5325 5323 5322 5320 5319 5318 5316 5315 5314 5313 5312 5311 5310 5309 5308 5307 5306 5306
5546 5540 5535 5529 5524 5519 5513 5509 5504 5499 5494 5489 5485 5480 5475 5470 5465 5460 5454 5449 5444 5439 5434 5429 5424 5420 5415 5410 5405 5400 5395 5390 5385 5380 5375 5370 5366 5361 5357 5352 5349 5345 5342 5339 5336 5334 5332 5330 5328 5326 5325 5323 5322 5321 5319 5318 5316 5315 5314 5313 5311 5311 5310 5309 5308 5307 5306 5306 5305
5545 5539 5534 5528 5523 5518 5513 5508 5503 5498 5494 5489 5484 5480 5475 5470 5465 5460 5454 5449 5444 5439 5434 5429 5425 5420 5415 5410 5405 5400 5395 5390 5386 5381 5376 5371 5366 5362 5358 5353 5349 5346 5342 5339 5336 5333 5331 5329 5327 5325 5324 5322 5321 5319 5318 5316 5315 5314 5313 5311 5310 5309 5308 5307 5306 5306 5305 5305 5304
5544 5539 5533 5528 5523 5518 5513 5508 5503 5498 5494 5489 5484 5479 5475 5470 5465 5459 5454 5449 5444 5439 5435 5430 5425 5420 5415 5410 5405 5401 5396 5391 5386 5381 5376 5372 5367 5362 5358 5354 5350 5346 5342 5339 5336 5333 5331 5328 5326 5324 5323 5321 5320 5318 5317 5315 5314 5313 5311 5310 5309 5308 5307 5306 5305 5304 5304 5303 5303
5543 5538 5533 5528 5523 5518 5513 5508 5503 5498 5494 5489 5484 5479 5474 5469 5464 5459 5454 5449 5444 5440 5435 5430 5426 5421 5416 5411 5406 5401 5396 5391 5387 5382 5377 5372 5367 5363 5358 5354 5350 5346 5343 5340 5336 5334 5331 5328 5326 5324 5322 5321 5319 5317 5316 5314 5313 5311 5310 5309 5307 5306 5306 5305 5304 5303 5302 5302 5301
5543 5538 5533 5527 5523 5518 5513 5508 5503 5499 5494 5489 5484 5479 5474 5469 5464 5459 5454 5450 5445 5440 5435 5430 5426 5421 5416 5411 5406 5401 5397 5392 5388 5383 5378 5373 5368 5364 5359 5354 5350 5346 5343 5340 5336 5334 5331 5329 5326 5324 5322 5320 5318 5316 5315 5313 5311 5310 5309 5307 5306 5305 5304 5303 5302 5301 5301 5300 5300
5542 5537 5532 5527 5522 5517 5513 5508 5503 5498 5493 5489 5484 5479 5474 5469 5464 5459 5455 5450 5445 5440 5435 5431 5426 5421 5417 5412 5407 5403 5398 5393 5388 5384 5379 5374 5370 5365 5360 5355 5351 5346 5342 5339 5336 5334 5331 5329 5326 5323 5321 5319 5317 5315 5314 5312 5310 5309 5307 5306 5305 5303 5302 5301 5301 5300 5299 5299 5298
5541 5536 5532 5527 5522 5517 5512 5508 5503 5498 5493 5489 5484 5479 5474 5469 5465 5460 5455 5450 5445 5440 5436 5431 5426 5422 5417 5413 5408 5403 5399 5394 5389 5385 5380 5376 5371 5366 5361 5356 5352 5347 5343 5339 5336 5333 5330 5328 5326 5323 5321 5318 5316 5314 5312 5311 5309 5307 5306 5305 5303 5302 5301 5300 5299 5298 5298 5297 5297
5541 5536 5531 5526 5521 5517 5512 5507 5503 5498 5494 5489 5484 5480 5475 5470 5465 5460 5455 5450 5446 5441 5436 5431 5427 5422 5418 5413 5409 5404 5400 5395 5391 5386 5381 5377 5372 5367 5363 5358 5353 5349 5345 5340 5336 5333 5330 5328 5325 5323 5321 5318 5316 5314 5312 5310 5308 5306 5305 5303 5302 5301 5299 5298 5297 5296 5296 5296 5296
5541 5536 5531 5526 5521 5516 5512 5507 5503 5499 5494 5489 5485 5480 5475 5470 5466 5461 5456 5451 5446 5442 5437 5432 5428 5423 5419 5414 5410 5405 5401 5396 5392 5387 5383 5378 5374 5369 5365 5360 5355 5351 5346 5342 5338 5334 5331 5330 5326 5323 5321 5318 5316 5314 5312 5310 5308 5306 5304 5302 5301 5299 5298 5297 5296 5295 5295 5294 5294
5540 5535 5531 5526 5521 5516 5512 5507 5503 5498 5494 5489 5485 5480 5476 5471 5466 5462 5457 5452 5448 5443 5438 5434 5429 5424 5420 5415 5411 5406 5402 5397 5393 5389 5384 5380 5375 5371 5366 5361 5357 5352 5348 5343 5340 5336 5333 5331 5328 5325 5321 5319 5316 5314 5311 5309 5307 5305 5303 5301 5300 5298 5297 5296 5295 5294 5293 5293 5292
5540 5535 5530 5526 5521 5516 5512 5507 5503 5498 5494 5489 5485 5481 5476 5472 5467 5463 5458 5454 5449 5444 5440 5435 5430 5426 5421 5417 5412 5408 5403 5399 5394 5390 5385 5381 5377 5372 5368 5363 5358 5354 5349 5345 5341 5338 5334 5331 5329 5326 5322 5319 5316 5314 5312 5309 5307 5305 5302 5301 5299 5297 5296 5295 5294 5293 5292 5291 5291
5540 5535 5530 5525 5521 5516 5511 5507 5503 5498 5494 5490 5486 5481 5477 5472 5468 5463 5459 5454 5450 5445 5440 5436 5431 5427 5423 5418 5414 5409 5405 5400 5396 5391 5386 5382 5378 5373 5369 5364 5360 5355 5351 5346 5342 5339 5336 5332 5330 5326 5323 5320 5317 5314 5311 5309 5307 5305 5302 5300 5298 5296 5295 5294 5293 5292 5291 5290 5290
5540 5535 5530 5526 5521 5516 5511 5507 5503 5499 5495 5490 5486 5482 5477 5473 5468 5464 5460 5455 5451 5446 5442 5437 5433 5428 5424 5419 5415 5411 5406 5401 5397 5393 5388 5383 5379 5375 5370 5366 5361 5356 5352 5348 5343 5340 5336 5333 5330 5326 5323 5320 5317 5314 5312 5309 5307 5304 5302 5300 5298 5296 5294 5293 5292 5291 5290 5289 5289
5540 5535 5530 5526 5521 5516 5512 5507 5503 5499 5495 5491 5486 5482 5478 5473 5469 5465 5461 5456 5452 5448 5443 5439 5434 5429 5425 5421 5416 5411 5407 5403 5398 5394 5390 5385 5381 5376 5372 5367 5363 5358 5353 5349 5344 5340 5336 5333 5329 5326 5322 5319 5317 5314 5311 5309 5306 5304 5302 5300 5298 5296 5294 5292 5291 5290 5289 5288 5288
5540 5536 5531 5526 5521 5516 5512 5508 5503 5499 5495 5491 5486 5482 5478 5474 5470 5466 5461 5457 5453 5448 5444 5439 5435 5431 5426 5421 5417 5413 5408 5404 5400 5395 5391 5386 5382 5378 5373 5369 5364 5360 5355 5350 5346 5341 5337 5333 5330 5326 5323 5320 5317 5314 5311 5309 5306 5304 5302 5300 5297 5296 5294 5292 5291 5289 5288 5288 5287
5540 5536 5531 5526 5521 5516 5512 5508 5504 5500 5496 5491 5487 5483 5479 5475 5470 5466 5462 5458 5453 5449 5445 5440 5436 5431 5427 5422 5418 5414 5409 5405 5401 5396 5392 5388 5383 5379 5375 5370 5366 5361 5356 5352 5347 5342 5338 5334 5331 5327 5323 5320 5316 5314 5311 5309 5306 5304 5302 5300 5297 5295 5293 5291 5290 5289 5288 5287 5286
5541 5536 5531 5526 5521 5517 5512 5508 5504 5500 5496 5492 5488 5484 5480 5475 5471 5466 5462 5458 5454 5450 5446 5442 5437 5433 5429 5424 5420 5415 5411 5406 5402 5397 5393 5389 5384 5380 5376 5371 5367 5362 5358 5353 5349 5344 5340 5335 5331 5328 5324 5321 5317 5315 5312 5309 5306 5304 5302 5300 5297 5295 5293 5291 5290 5288 5287 5286 5286
5541 5536 5531 5526 5522 5517 5513 5508 5504 5501 5496 5493 5489 5484 5480 5476 5472 5467 5463 5459 5455 5451 5447 5443 5439 5435 5431 5426 5421 5417 5412 5407 5403 5399 5394 5390 5386 5381 5377 5372 5368 5363 5359 5355 5350 5346 5341 5337 5333 5330 5326 5322 5319 5316 5312 5310 5307 5304 5302 5299 5297 5295 5293 5291 5290 5288 5287 5286 5285
5541 5536 5531 5527 5522 5518 5513 5509 5505 5501 5497 5493 5489 5485 5481 5477 5473 5469 5464 5460 5456 5452 5448 5444 5440 5436 5431 5427 5423 5418 5413 5409 5405 5400 5396 5392 5387 5383 5378 5374 5369 5365 5361 5356 5352 5348 5343 5339 5335 5332 5328 5324 5320 5317 5314 5311 5307 5304 5301 5299 5297 5295 5293 5291 5290 5288 5287 5286 5285
5541 5536 5532 5527 5523 5518 5514 5510 5506 5501 5497 5494 5490 5486 5482 5478 5474 5470 5465 5461 5457 5453 5449 5445 5441 5437 5433 5428 5424 5420 5415 5411 5406 5402 5398 5393 5389 5385 5380 5376 5371 5367 5362 5358 5354 5350 5346 5341 5338 5335 5331 5326 5322 5319 5316 5312 5308 5305 5302 5299 5297 5295 5293 5291 5290 5288 5287 5286 5285
5541 5536 5532 5528 5524 5519 5515 5510 5506 5502 5498 5494 5491 5487 5483 5479 5475 5471 5466 5462 5458 5455 5451 5447 5443 5439 5435 5430 5426 5421 5417 5412 5408 5403 5399 5395 5391 5386 5382 5378 5373 5369 5365 5361 5357 5353 5349 5344 5340 5337 5333 5328 5324 5321 5317 5313 5310 5306 5303 5300 5298 5296 5294 5292 5290 5289 5288 5286 5286
5541 5536 5532 5528 5524 5520 5515 5511 5506 5502 5499 5495 5491 5487 5483 5480 5476 5472 5468 5464 5460 5456 5452 5448 5444 5440 5436 5432 5427 5423 5418 5414 5409 5405 5401 5396 5392 5388 5384 5380 5376 5371 5368 5364 5360 5356 5352 5348 5343 5340 5336 5330 5326 5322 5319 5315 5311 5308 5305 5302 5299 5297 5295 5293 5291 5290 5288 5287 5287
5541 5536 5532 5528 5524 5520 5516 5511 5507 5503 5499 5495 5491 5487 5484 5480 5476 5473 5469 5465 5461 5457 5453 5449 5446 5441 5437 5433 5429 5424 5419 5415 5410 5406 5402 5398 5393 5389 5385 5381 5377 5374 5370 5366 5362 5358 5354 5350 5346 5342 5338 5333 5329 5325 5321 5317 5313 5310 5306 5303 5301 5298 5296 5294 5292 5291 5290 5289 5288
5541 5536 5532 5528 5524 5520 5516 5511 5507 5503 5499 5495 5491 5488 5484 5481 5477 5473 5469 5465 5461 5457 5454 5450 5446 5442 5438 5434 5430 5425 5420 5416 5411 5407 5403 5399 5395 5391 5387 5383 5379 5375 5371 5367 5364 5360 5356 5352 5348 5344 5340 5336 5332 5327 5323 5319 5315 5311 5308 5305 5302 5300 5298 5296 5294 5292 5291 5290 5289
5541 5537 5532 5528 5524 5520 5516 5511 5507 5503 5499 5495 5492 5488 5484 5480 5476 5473 5469 5465 5461 5458 5454 5450 5446 5442 5439 5435 5430 5426 5421 5417 5413 5409 5405 5401 5397 5393 5389 5385 5381 5377 5373 5369 5365 5361 5357 5353 5349 5345 5341 5339 5334 5329 5325 5320 5316 5313 5310 5307 5304 5302 5300 5297 5296 5294 5293 5292 5291